Location: ??
(35.5052°N, 139.7262°E)
Time: 03:46:46
(UTC+00:00)

Cosmos 2082 Rocket - Pass Details

Date: 20 June 2021
Orbit: 832 x 854 km, 71.0° (Epoch: 26 July)

Event Time Altitude Azimuth Distance (km) Brightness Sun altitude
Exits shadow 18:18:20 - 189° (S) 2,633 4.3 -12.1°
Reaches altitude 10° 18:18:52 10° 188° (S) 2,431 4.2 -12.0°
Maximum altitude 18:24:22 64° 108° (ESE) 918 2.6 -11.1°
Drops below altitude 10° 18:29:54 10° 28° (NNE) 2,446 5.8 -10.3°
Sets 18:32:21 0° 25° (NNE) 3,385 6.6 -9.9°
